ADV9127 KLAX-MMSD

Flight info

Callsign ADV9127
Flight time 2h 0m
Altitude 37000
Route PNDAH2 OTAYY DCT TIJ UT6 IMUSU UT25 LTO DCT ENEKO ENEKO1B
Aircraft A320/M-SDE3FGHIRWY/LB1

Departure

Time 2026-05-01 09:04
Airport Los Angeles International Airport (KLAX)

Arrival

Time 2026-05-01 11:04
Airport Los Cabos International Airport (MMSD)
Time Latitude Longitude Altitude Speed Heading
2026-05-01 08:36 33.94028 -118.39930 96 ft 0 kts 19°
2026-05-01 08:56 33.94012 -118.39936 93 ft 4 kts 19°
2026-05-01 08:57 33.93992 -118.39945 93 ft 4 kts 20°
2026-05-01 08:57 33.93969 -118.39958 92 ft 4 kts 57°
2026-05-01 08:57 33.93964 -118.39983 93 ft 4 kts 83°
2026-05-01 08:57 33.93963 -118.39992 92 ft 0 kts 83°
2026-05-01 09:00 33.93964 -118.39973 94 ft 7 kts 83°
2026-05-01 09:00 33.93972 -118.39893 94 ft 11 kts 83°
2026-05-01 09:00 33.93982 -118.39787 94 ft 15 kts 83°
2026-05-01 09:00 33.93998 -118.39642 95 ft 19 kts 83°
2026-05-01 09:01 33.94016 -118.39471 93 ft 22 kts 83°
2026-05-01 09:01 33.94035 -118.39277 95 ft 25 kts 83°
2026-05-01 09:01 33.94051 -118.39068 95 ft 23 kts 97°
2026-05-01 09:01 33.93989 -118.38924 94 ft 20 kts 83°
2026-05-01 09:02 33.94005 -118.38744 94 ft 23 kts 84°
2026-05-01 09:02 33.94027 -118.38549 98 ft 24 kts 82°
2026-05-01 09:02 33.94039 -118.38370 97 ft 15 kts 98°
2026-05-01 09:02 33.93968 -118.38335 98 ft 12 kts 210°
2026-05-01 09:03 33.93946 -118.38399 99 ft 0 kts 264°
2026-05-01 09:03 33.93922 -118.38629 99 ft 65 kts 263°
2026-05-01 09:03 33.93839 -118.39435 99 ft 126 kts 263°
2026-05-01 09:04 33.93714 -118.40673 154 ft 165 kts 263°
2026-05-01 09:04 33.93575 -118.42016 808 ft 162 kts 262°
2026-05-01 09:04 33.93437 -118.43363 1446 ft 162 kts 262°
2026-05-01 09:04 33.93302 -118.44727 1983 ft 169 kts 262°
2026-05-01 09:05 33.92939 -118.46136 2255 ft 190 kts 239°
2026-05-01 09:05 33.92108 -118.47489 2554 ft 213 kts 231°
2026-05-01 09:05 33.91143 -118.48950 2936 ft 233 kts 232°
2026-05-01 09:05 33.90083 -118.50519 3506 ft 246 kts 231°
2026-05-01 09:06 33.88957 -118.52132 4152 ft 261 kts 231°
2026-05-01 09:06 33.87725 -118.53817 4863 ft 274 kts 225°
2026-05-01 09:06 33.86122 -118.55108 5714 ft 282 kts 205°
2026-05-01 09:06 33.84213 -118.55690 6639 ft 287 kts 185°
2026-05-01 09:07 33.82217 -118.55477 7528 ft 290 kts 168°
2026-05-01 09:07 33.80247 -118.54936 8435 ft 291 kts 167°
2026-05-01 09:07 33.78267 -118.54391 9345 ft 292 kts 167°
2026-05-01 09:07 33.76281 -118.53851 10191 ft 295 kts 167°
2026-05-01 09:08 33.74202 -118.53287 10493 ft 318 kts 166°
2026-05-01 09:08 33.72060 -118.52383 10861 ft 334 kts 153°
2026-05-01 09:08 33.70090 -118.50858 11467 ft 341 kts 139°
2026-05-01 09:08 33.68446 -118.48778 12089 ft 347 kts 125°
2026-05-01 09:09 33.67210 -118.46260 12705 ft 353 kts 116°
2026-05-01 09:09 33.66072 -118.43611 13331 ft 360 kts 115°
2026-05-01 09:09 33.64917 -118.40914 13927 ft 367 kts 115°
2026-05-01 09:09 33.63743 -118.38172 14500 ft 372 kts 115°
2026-05-01 09:10 33.62554 -118.35402 15141 ft 375 kts 116°
2026-05-01 09:10 33.61353 -118.32613 15768 ft 378 kts 116°
2026-05-01 09:10 33.60138 -118.29800 16370 ft 382 kts 116°
2026-05-01 09:10 33.58908 -118.26957 16966 ft 386 kts 116°
2026-05-01 09:11 33.57665 -118.24084 17567 ft 390 kts 116°
2026-05-01 09:11 33.56407 -118.21184 18152 ft 394 kts 116°
2026-05-01 09:11 33.55152 -118.18295 18682 ft 398 kts 116°
2026-05-01 09:11 33.53871 -118.15336 19222 ft 402 kts 116°
2026-05-01 09:12 33.52581 -118.12349 19758 ft 406 kts 116°
2026-05-01 09:12 33.51285 -118.09329 20322 ft 409 kts 116°
2026-05-01 09:12 33.49980 -118.06281 20884 ft 413 kts 116°
2026-05-01 09:12 33.48660 -118.03204 21379 ft 417 kts 116°
2026-05-01 09:13 33.47189 -118.00183 21883 ft 423 kts 124°
2026-05-01 09:13 33.45304 -117.97465 22392 ft 427 kts 135°
2026-05-01 09:13 33.43097 -117.95067 22901 ft 431 kts 139°
2026-05-01 09:13 33.40841 -117.92685 23397 ft 435 kts 139°
2026-05-01 09:14 33.38567 -117.90273 23836 ft 439 kts 139°
2026-05-01 09:14 33.36277 -117.87836 24246 ft 442 kts 139°
2026-05-01 09:14 33.33967 -117.85380 24662 ft 446 kts 139°
2026-05-01 09:14 33.31641 -117.82909 25073 ft 449 kts 139°
2026-05-01 09:15 33.29294 -117.80418 25472 ft 453 kts 139°
2026-05-01 09:15 33.26930 -117.77915 25867 ft 456 kts 139°
2026-05-01 09:15 33.24547 -117.75394 26261 ft 459 kts 139°
2026-05-01 09:15 33.22146 -117.72858 26639 ft 462 kts 139°
2026-05-01 09:16 33.19724 -117.70305 27020 ft 466 kts 139°
2026-05-01 09:16 33.17287 -117.67739 27403 ft 469 kts 140°
2026-05-01 09:16 33.14839 -117.65152 27752 ft 472 kts 139°
2026-05-01 09:17 33.09985 -117.59795 28480 ft 478 kts 137°
2026-05-01 09:17 33.07561 -117.57052 28834 ft 481 kts 137°
2026-05-01 09:17 33.02667 -117.51532 29519 ft 487 kts 138°
2026-05-01 09:18 33.00183 -117.48765 29877 ft 490 kts 138°
2026-05-01 09:18 32.95156 -117.43196 30512 ft 496 kts 138°
2026-05-01 09:19 32.90068 -117.37573 31109 ft 501 kts 139°
2026-05-01 09:19 32.87506 -117.34746 31407 ft 504 kts 139°
2026-05-01 09:19 32.84935 -117.31908 31737 ft 505 kts 139°
2026-05-01 09:20 32.79793 -117.26231 32570 ft 504 kts 139°
2026-05-01 09:20 32.74697 -117.20610 33403 ft 503 kts 139°
2026-05-01 09:21 32.69567 -117.14973 34192 ft 503 kts 139°
2026-05-01 09:21 32.67003 -117.12149 34536 ft 503 kts 137°
2026-05-01 09:21 32.62263 -117.06037 35210 ft 503 kts 134°
2026-05-01 09:22 32.57584 -116.99896 35888 ft 501 kts 134°
2026-05-01 09:22 32.52742 -116.94007 36563 ft 496 kts 144°
2026-05-01 09:23 32.50065 -116.91438 36869 ft 495 kts 144°
2026-05-01 09:23 32.44728 -116.86318 37059 ft 492 kts 144°
2026-05-01 09:24 32.36753 -116.78654 37031 ft 492 kts 144°
2026-05-01 09:25 32.26132 -116.68468 37010 ft 491 kts 145°
2026-05-01 09:26 32.18186 -116.60874 37030 ft 490 kts 145°
2026-05-01 09:26 32.10279 -116.53232 37042 ft 491 kts 143°
2026-05-01 09:27 32.02489 -116.45377 37027 ft 491 kts 143°
2026-05-01 09:28 31.97284 -116.40168 37047 ft 491 kts 143°
2026-05-01 09:28 31.92094 -116.35037 37050 ft 490 kts 144°
2026-05-01 09:29 31.84253 -116.27313 37029 ft 490 kts 144°
2026-05-01 09:30 31.76431 -116.19574 37049 ft 490 kts 144°
2026-05-01 09:30 31.68444 -116.12072 37040 ft 489 kts 147°
2026-05-01 09:31 31.62975 -116.07343 37026 ft 488 kts 148°
2026-05-01 09:32 31.54813 -116.00194 37033 ft 488 kts 147°
2026-05-01 09:32 31.46718 -115.92972 37046 ft 488 kts 147°
2026-05-01 09:33 31.41307 -115.88174 37028 ft 488 kts 147°
2026-05-01 09:34 31.33229 -115.81032 37026 ft 487 kts 147°
2026-05-01 09:34 31.25102 -115.73876 37023 ft 487 kts 147°
2026-05-01 09:35 31.16980 -115.66732 37012 ft 487 kts 147°
2026-05-01 09:36 31.11568 -115.61974 37015 ft 487 kts 147°
2026-05-01 09:36 31.06149 -115.57223 36998 ft 488 kts 147°
2026-05-01 09:37 31.00729 -115.52472 36979 ft 487 kts 148°
2026-05-01 09:37 30.92596 -115.45358 36977 ft 487 kts 148°
2026-05-01 09:38 30.84458 -115.38276 36963 ft 487 kts 148°
2026-05-01 09:39 30.76367 -115.31113 36983 ft 488 kts 146°
2026-05-01 09:39 30.71069 -115.26150 36941 ft 489 kts 145°
2026-05-01 09:40 30.63112 -115.18712 36943 ft 490 kts 146°
2026-05-01 09:41 30.57773 -115.13806 36908 ft 489 kts 146°
2026-05-01 09:41 30.49773 -115.06485 36936 ft 488 kts 146°
2026-05-01 09:42 30.44456 -115.01601 36948 ft 487 kts 146°
2026-05-01 09:43 30.34722 -114.92676 36916 ft 487 kts 146°
2026-05-01 09:43 30.29404 -114.87827 36937 ft 487 kts 146°
2026-05-01 09:44 30.21429 -114.80558 36961 ft 486 kts 146°
2026-05-01 09:45 30.16121 -114.75713 36925 ft 486 kts 146°
2026-05-01 09:45 30.08164 -114.68479 36949 ft 485 kts 147°
2026-05-01 09:46 30.02865 -114.63674 36951 ft 484 kts 147°
2026-05-01 09:46 29.97561 -114.58877 36966 ft 484 kts 147°
2026-05-01 09:47 29.92262 -114.54088 36948 ft 484 kts 147°
2026-05-01 09:47 29.86966 -114.49302 36953 ft 484 kts 147°
2026-05-01 09:48 29.81671 -114.44522 36958 ft 483 kts 147°
2026-05-01 09:48 29.76379 -114.39746 36969 ft 483 kts 147°
2026-05-01 09:49 29.71086 -114.34981 36947 ft 483 kts 147°
2026-05-01 09:49 29.65827 -114.30254 36960 ft 482 kts 147°
2026-05-01 09:50 29.60539 -114.25508 36957 ft 482 kts 147°
2026-05-01 09:50 29.55241 -114.20768 36956 ft 482 kts 147°
2026-05-01 09:51 29.49954 -114.16036 36968 ft 482 kts 147°
2026-05-01 09:51 29.44670 -114.11311 36959 ft 481 kts 147°
2026-05-01 09:52 29.39396 -114.06602 36980 ft 480 kts 147°
2026-05-01 09:52 29.34118 -114.01913 36979 ft 480 kts 148°
2026-05-01 09:53 29.28839 -113.97221 36953 ft 480 kts 147°
2026-05-01 09:53 29.23569 -113.92524 36964 ft 480 kts 147°
2026-05-01 09:54 29.18300 -113.87832 36973 ft 480 kts 148°
2026-05-01 09:54 29.13023 -113.83165 36976 ft 479 kts 148°
2026-05-01 09:55 29.07788 -113.78539 36989 ft 479 kts 147°
2026-05-01 09:55 29.02489 -113.73850 36956 ft 478 kts 148°
2026-05-01 09:56 28.97258 -113.69237 36971 ft 478 kts 148°
2026-05-01 09:56 28.91988 -113.64588 36973 ft 479 kts 148°
2026-05-01 09:57 28.86719 -113.59945 36956 ft 478 kts 148°
2026-05-01 09:57 28.81453 -113.55318 36949 ft 478 kts 148°
2026-05-01 09:58 28.76181 -113.50698 36950 ft 478 kts 148°
2026-05-01 09:58 28.70913 -113.46078 36940 ft 478 kts 148°
2026-05-01 09:59 28.65655 -113.41457 36965 ft 477 kts 148°
2026-05-01 09:59 28.60397 -113.36845 36961 ft 477 kts 148°
2026-05-01 10:00 28.55130 -113.32246 36939 ft 477 kts 148°
2026-05-01 10:00 28.49865 -113.27653 36948 ft 477 kts 148°
2026-05-01 10:01 28.44598 -113.23070 36932 ft 477 kts 148°
2026-05-01 10:01 28.39330 -113.18490 36941 ft 477 kts 148°
2026-05-01 10:02 28.34067 -113.13917 36926 ft 477 kts 149°
2026-05-01 10:02 28.28830 -113.09372 36925 ft 477 kts 149°
2026-05-01 10:03 28.23554 -113.04797 36944 ft 478 kts 149°
2026-05-01 10:03 28.18273 -113.00214 36936 ft 478 kts 149°
2026-05-01 10:04 28.12982 -112.95638 36938 ft 479 kts 149°
2026-05-01 10:04 28.07678 -112.91069 36918 ft 479 kts 150°
2026-05-01 10:05 28.02371 -112.86503 36931 ft 479 kts 150°
2026-05-01 10:05 27.97067 -112.81918 36926 ft 480 kts 149°
2026-05-01 10:06 27.91762 -112.77338 36949 ft 480 kts 149°
2026-05-01 10:06 27.86456 -112.72775 36914 ft 479 kts 150°
2026-05-01 10:07 27.81141 -112.68229 36906 ft 479 kts 150°
2026-05-01 10:07 27.75828 -112.63689 36921 ft 479 kts 150°
2026-05-01 10:08 27.67861 -112.56865 36915 ft 479 kts 150°
2026-05-01 10:09 27.62548 -112.52312 36910 ft 480 kts 151°
2026-05-01 10:09 27.57224 -112.47769 36909 ft 480 kts 151°
2026-05-01 10:10 27.51927 -112.43258 36906 ft 481 kts 151°
2026-05-01 10:10 27.43899 -112.36437 36903 ft 482 kts 152°
2026-05-01 10:11 27.38540 -112.31889 36877 ft 484 kts 151°
2026-05-01 10:11 27.33159 -112.27329 36902 ft 483 kts 154°
2026-05-01 10:12 27.28478 -112.24026 36911 ft 477 kts 158°
2026-05-01 10:13 27.19040 -112.17494 36912 ft 478 kts 158°
2026-05-01 10:13 27.13378 -112.13587 36873 ft 477 kts 159°
2026-05-01 10:14 27.04890 -112.07739 36903 ft 477 kts 158°
2026-05-01 10:14 26.99231 -112.03846 36904 ft 477 kts 158°
2026-05-01 10:15 26.93572 -111.99949 36913 ft 477 kts 158°
2026-05-01 10:15 26.87947 -111.96076 36865 ft 477 kts 159°
2026-05-01 10:16 26.82245 -111.92169 36882 ft 477 kts 159°
2026-05-01 10:17 26.73775 -111.86382 36896 ft 478 kts 159°
2026-05-01 10:17 26.65275 -111.80564 36910 ft 478 kts 159°
2026-05-01 10:18 26.56777 -111.74760 36892 ft 477 kts 159°
2026-05-01 10:19 26.51108 -111.70901 36904 ft 477 kts 159°
2026-05-01 10:19 26.45437 -111.67041 36916 ft 477 kts 159°
2026-05-01 10:20 26.36927 -111.61254 36900 ft 478 kts 159°
2026-05-01 10:20 26.31260 -111.57396 36916 ft 477 kts 159°
2026-05-01 10:21 26.22766 -111.51634 36918 ft 476 kts 159°
2026-05-01 10:22 26.14270 -111.45895 36924 ft 476 kts 159°
2026-05-01 10:23 26.05795 -111.40161 36917 ft 475 kts 159°
2026-05-01 10:23 25.97447 -111.34116 36911 ft 490 kts 147°
2026-05-01 10:24 25.87911 -111.23006 36903 ft 498 kts 142°
2026-05-01 10:25 25.78401 -111.11844 36898 ft 497 kts 142°
2026-05-01 10:26 25.73641 -111.06272 36907 ft 497 kts 142°
2026-05-01 10:27 25.64123 -110.95156 36901 ft 497 kts 142°
2026-05-01 10:28 25.57015 -110.86859 36886 ft 497 kts 142°
2026-05-01 10:28 25.49877 -110.78542 36894 ft 496 kts 142°
2026-05-01 10:29 25.42744 -110.70255 36894 ft 495 kts 142°
2026-05-01 10:30 25.33235 -110.59230 36880 ft 494 kts 142°
2026-05-01 10:31 25.24545 -110.49183 36888 ft 494 kts 142°
2026-05-01 10:32 25.17426 -110.40963 36884 ft 493 kts 142°
2026-05-01 10:33 25.07939 -110.30024 36867 ft 493 kts 142°
2026-05-01 10:34 25.00814 -110.21833 36669 ft 496 kts 142°
2026-05-01 10:34 24.98420 -110.19086 36422 ft 496 kts 142°
2026-05-01 10:34 24.96036 -110.16349 36172 ft 494 kts 142°
2026-05-01 10:35 24.91303 -110.10911 35304 ft 489 kts 142°
2026-05-01 10:35 24.88946 -110.08212 34796 ft 488 kts 143°
2026-05-01 10:35 24.86590 -110.05518 34259 ft 488 kts 143°
2026-05-01 10:35 24.84239 -110.02829 33701 ft 487 kts 142°
2026-05-01 10:36 24.79555 -109.97481 32596 ft 483 kts 142°
2026-05-01 10:36 24.77261 -109.94861 32074 ft 481 kts 142°
2026-05-01 10:36 24.74945 -109.92217 31540 ft 479 kts 142°
2026-05-01 10:37 24.72641 -109.89586 31024 ft 477 kts 142°
2026-05-01 10:37 24.68048 -109.84347 30018 ft 474 kts 142°
2026-05-01 10:37 24.65764 -109.81746 29476 ft 472 kts 142°
2026-05-01 10:38 24.63495 -109.79163 29011 ft 468 kts 142°
2026-05-01 10:38 24.61241 -109.76595 28532 ft 464 kts 142°
2026-05-01 10:38 24.59011 -109.74053 28075 ft 460 kts 141°
2026-05-01 10:38 24.56798 -109.71531 27618 ft 457 kts 141°
2026-05-01 10:39 24.54593 -109.69023 27150 ft 455 kts 141°
2026-05-01 10:39 24.52398 -109.66532 26673 ft 453 kts 141°
2026-05-01 10:39 24.50208 -109.64050 26195 ft 452 kts 141°
2026-05-01 10:39 24.48035 -109.61587 25808 ft 448 kts 141°
2026-05-01 10:40 24.45868 -109.59136 25415 ft 444 kts 141°
2026-05-01 10:40 24.43729 -109.56716 25039 ft 439 kts 141°
2026-05-01 10:40 24.41617 -109.54329 24325 ft 434 kts 141°
2026-05-01 10:40 24.39532 -109.51972 23702 ft 426 kts 141°
2026-05-01 10:41 24.37499 -109.49664 23148 ft 415 kts 141°
2026-05-01 10:41 24.35528 -109.47422 22650 ft 400 kts 143°
2026-05-01 10:41 24.31209 -109.44381 21769 ft 345 kts 172°
2026-05-01 10:42 24.28961 -109.43842 21398 ft 319 kts 185°
2026-05-01 10:42 24.26821 -109.43824 21058 ft 301 kts 195°
2026-05-01 10:42 24.24796 -109.44236 20716 ft 293 kts 202°
2026-05-01 10:42 24.22817 -109.44750 20380 ft 292 kts 202°
2026-05-01 10:43 24.20869 -109.45249 20053 ft 291 kts 202°
2026-05-01 10:43 24.18876 -109.45759 19711 ft 290 kts 201°
2026-05-01 10:43 24.16941 -109.46250 19378 ft 289 kts 201°
2026-05-01 10:43 24.14985 -109.46747 19047 ft 288 kts 201°
2026-05-01 10:44 24.13033 -109.47243 18715 ft 288 kts 201°
2026-05-01 10:44 24.11084 -109.47739 18381 ft 287 kts 201°
2026-05-01 10:44 24.09138 -109.48235 18031 ft 287 kts 200°
2026-05-01 10:44 24.07195 -109.48730 17673 ft 286 kts 200°
2026-05-01 10:45 24.05265 -109.49222 17335 ft 284 kts 200°
2026-05-01 10:45 24.03347 -109.49710 16999 ft 282 kts 200°
2026-05-01 10:45 24.01443 -109.50194 16682 ft 280 kts 200°
2026-05-01 10:45 23.99550 -109.50676 16363 ft 278 kts 200°
2026-05-01 10:46 23.97672 -109.51152 16066 ft 276 kts 200°
2026-05-01 10:46 23.95806 -109.51627 15747 ft 275 kts 200°
2026-05-01 10:46 23.93948 -109.52103 15431 ft 273 kts 200°
2026-05-01 10:46 23.92099 -109.52576 15119 ft 273 kts 199°
2026-05-01 10:47 23.90195 -109.52811 14813 ft 279 kts 186°
2026-05-01 10:47 23.88219 -109.52614 14696 ft 295 kts 181°
2026-05-01 10:47 23.86151 -109.52366 14547 ft 302 kts 181°
2026-05-01 10:47 23.84061 -109.52114 14397 ft 303 kts 181°
2026-05-01 10:48 23.81968 -109.51859 14245 ft 302 kts 181°
2026-05-01 10:48 23.79878 -109.51605 14094 ft 301 kts 181°
2026-05-01 10:48 23.77797 -109.51355 13938 ft 301 kts 181°
2026-05-01 10:48 23.75720 -109.51105 13790 ft 300 kts 181°
2026-05-01 10:49 23.73649 -109.50855 13633 ft 299 kts 180°
2026-05-01 10:49 23.71578 -109.50606 13470 ft 299 kts 180°
2026-05-01 10:49 23.69512 -109.50359 13319 ft 299 kts 180°
2026-05-01 10:49 23.67448 -109.50113 13168 ft 298 kts 180°
2026-05-01 10:50 23.65386 -109.49869 13018 ft 298 kts 180°
2026-05-01 10:50 23.63324 -109.49622 12864 ft 298 kts 180°
2026-05-01 10:50 23.61266 -109.49376 12727 ft 297 kts 180°
2026-05-01 10:50 23.59211 -109.49130 12563 ft 297 kts 180°
2026-05-01 10:51 23.57158 -109.48885 12412 ft 297 kts 180°
2026-05-01 10:51 23.55108 -109.48640 12256 ft 296 kts 180°
2026-05-01 10:51 23.53064 -109.48395 12113 ft 296 kts 180°
2026-05-01 10:51 23.51018 -109.48160 11960 ft 294 kts 183°
2026-05-01 10:52 23.49009 -109.48278 11763 ft 287 kts 196°
2026-05-01 10:52 23.47080 -109.48755 11463 ft 283 kts 199°
2026-05-01 10:52 23.45167 -109.49242 11181 ft 282 kts 199°
2026-05-01 10:52 23.43257 -109.49727 10898 ft 282 kts 199°
2026-05-01 10:53 23.41347 -109.50210 10615 ft 281 kts 199°
2026-05-01 10:53 23.39448 -109.50685 10338 ft 280 kts 200°
2026-05-01 10:53 23.37549 -109.51160 10061 ft 279 kts 199°
2026-05-01 10:53 23.35658 -109.51632 9781 ft 278 kts 199°
2026-05-01 10:54 23.33771 -109.52105 9482 ft 279 kts 199°
2026-05-01 10:54 23.31869 -109.52585 9197 ft 281 kts 198°
2026-05-01 10:54 23.29966 -109.53064 8925 ft 280 kts 198°
2026-05-01 10:54 23.28081 -109.53536 8647 ft 277 kts 198°
2026-05-01 10:55 23.26226 -109.54003 8375 ft 278 kts 198°
2026-05-01 10:55 23.24342 -109.54479 8098 ft 278 kts 198°
2026-05-01 10:55 23.22462 -109.54954 7818 ft 277 kts 197°
2026-05-01 10:55 23.20584 -109.55427 7531 ft 277 kts 197°
2026-05-01 10:56 23.18707 -109.55897 7236 ft 276 kts 197°
2026-05-01 10:56 23.16832 -109.56366 6959 ft 277 kts 197°
2026-05-01 10:56 23.14956 -109.56835 6674 ft 277 kts 196°
2026-05-01 10:56 23.13080 -109.57304 6383 ft 276 kts 196°
2026-05-01 10:57 23.11206 -109.57772 6076 ft 276 kts 196°
2026-05-01 10:57 23.09340 -109.58239 5799 ft 271 kts 196°
2026-05-01 10:57 23.07570 -109.58679 5674 ft 251 kts 196°
2026-05-01 10:57 23.05903 -109.59092 5325 ft 242 kts 196°
2026-05-01 10:58 23.04292 -109.59494 5026 ft 232 kts 196°
2026-05-01 10:58 23.02756 -109.59878 4777 ft 223 kts 195°
2026-05-01 10:58 23.01259 -109.60251 4542 ft 217 kts 195°
2026-05-01 10:58 22.99878 -109.60771 4342 ft 206 kts 216°
2026-05-01 10:59 22.98925 -109.61878 4121 ft 200 kts 244°
2026-05-01 10:59 22.98617 -109.63326 3880 ft 198 kts 273°
2026-05-01 10:59 22.98865 -109.64788 3660 ft 197 kts 283°
2026-05-01 10:59 22.99162 -109.66232 3432 ft 193 kts 283°
2026-05-01 11:00 22.99461 -109.67628 3244 ft 188 kts 288°
2026-05-01 11:00 23.00123 -109.68825 3059 ft 187 kts 315°
2026-05-01 11:00 23.01217 -109.69574 2825 ft 188 kts 340°
2026-05-01 11:00 23.02501 -109.69853 2585 ft 189 kts 349°
2026-05-01 11:01 23.03795 -109.70095 2340 ft 188 kts 349°
2026-05-01 11:01 23.05055 -109.70333 2090 ft 178 kts 349°
2026-05-01 11:01 23.06206 -109.70552 1846 ft 157 kts 349°
2026-05-01 11:01 23.07239 -109.70749 1620 ft 146 kts 349°
2026-05-01 11:02 23.08226 -109.70936 1407 ft 142 kts 350°
2026-05-01 11:02 23.09182 -109.71107 1222 ft 140 kts 350°
2026-05-01 11:02 23.10142 -109.71274 1038 ft 139 kts 350°
2026-05-01 11:02 23.11086 -109.71470 854 ft 138 kts 346°
2026-05-01 11:03 23.12018 -109.71679 695 ft 136 kts 352°
2026-05-01 11:03 23.12961 -109.71792 523 ft 136 kts 354°
2026-05-01 11:03 23.13900 -109.71914 374 ft 136 kts 353°
2026-05-01 11:03 23.14769 -109.72025 356 ft 106 kts 354°
2026-05-01 11:04 23.15334 -109.72090 363 ft 61 kts 354°
2026-05-01 11:04 23.15689 -109.72130 370 ft 47 kts 354°
2026-05-01 11:04 23.15876 -109.72102 375 ft 20 kts 25°
2026-05-01 11:04 23.16007 -109.72037 378 ft 21 kts 23°
2026-05-01 11:05 23.16125 -109.71963 380 ft 16 kts 58°
2026-05-01 11:05 23.16185 -109.71902 381 ft 10 kts
2026-05-01 11:05 23.16217 -109.71875 382 ft 6 kts 72°
2026-05-01 11:05 23.16216 -109.71849 382 ft 0 kts 95°